This demonstration page uses our WeatherBlox Daily Observations layout. Learn more.

Left ArrowRight Arrow

Hourly Observations for July 25, 2015

Temp ( °F °C ) Dew Point ( °F °C ) Humidity (%) Winds ( mph kmh ) Pressure ( in mb ) Visibility ( mi km ) Precip ( " mm )
12:53 am 00:53 Clear 63 17.2 62 16.7 97 97 N N/A 30.01 1016 10 16 N/A
1:53 am 01:53 Clear 63 17.2 61 16.1 93 93 N N/A 30.00 1016 10 16 N/A
2:53 am 02:53 Clear 63 17.2 61 16.1 93 93 N N/A 30.01 1016 9 14 N/A
3:53 am 03:53 Clear 62 16.7 61 16.1 96 96 N N/A 30.00 1016 8 13 N/A
4:53 am 04:53 Clear with Mist and Fog 61 16.1 60 15.6 97 97 N N/A 29.99 1016 6 10 N/A
5:53 am 05:53 Clear with Mist and Fog 61 16.1 59 15 93 93 N N/A 30.00 1016 5 8 N/A
6:53 am 06:53 Sunny 61 16.1 59 15 93 93 N N/A 30.02 1017 7 11 N/A
7:53 am 07:53 Sunny 67 19.4 63 17.2 87 87 N N/A 30.01 1016 8 13 N/A
8:53 am 08:53 Sunny 71 21.7 65 18.3 81 81 N N/A 30.01 1016 9 14 N/A
9:53 am 09:53 Sunny 76 24.4 65 18.3 69 69 N N/A 30.02 1017 10 16 N/A
10:53 am 10:53 Sunny 81 27.2 65 18.3 58 58 N N/A 30.04 1017 10 16 N/A
11:53 am 11:53 Sunny 82 27.8 64 17.8 55 55 VRB 5 7 30.03 1017 10 16 N/A
12:53 pm 12:53 Sunny 83 28.3 62 16.7 49 49 WNW 3 6 30.01 1016 10 16 N/A
1:53 pm 13:53 Sunny 85 29.4 64 17.8 50 50 VRB 5 7 30.00 1016 10 16 N/A
2:53 pm 14:53 Mostly Cloudy 85 29.4 65 18.3 51 51 VRB 3 6 29.98 1015 10 16 N/A
3:53 pm 15:53 Mostly Sunny 87 30.6 68 20 53 53 N N/A 29.97 1015 10 16 N/A
4:53 pm 16:53 Sunny 86 30 66 18.9 51 51 N N/A 29.95 1014 10 16 N/A
5:53 pm 17:53 Sunny 86 30 67 19.4 53 53 N N/A 29.94 1014 10 16 N/A
6:53 pm 18:53 Sunny 85 29.4 68 20 57 57 SW 3 6 29.93 1013 10 16 N/A
7:53 pm 19:53 Sunny 83 28.3 71 21.7 67 67 N N/A 29.93 1014 10 16 N/A
8:53 pm 20:53 Sunny 79 26.1 69 20.6 72 72 WSW 3 6 29.94 1014 10 16 N/A
9:53 pm 21:53 Clear with Light Rain 73 22.8 69 20.6 87 87 N N/A 29.96 1014 10 16 N/A
10:53 pm 22:53 Mostly Cloudy with Light Rain 73 22.8 69 20.6 87 87 N N/A 29.97 1015 10 16 N/A
11:53 pm 23:53 Partly Cloudy with Light Rain 73 22.8 69 20.6 87 87 N N/A 29.96 1015 10 16 N/A

Powered by AerisWeather